Regional Weather Roundup
Issued by NWS Northern Indiana

Home | Current Version | Previous Version | Graphics & Text | Print | Product List | Glossary On
Versions: 1 2 3 4 5 6 7 8 9 10 11 12 13 14 15 16 17 18 19 20 21 22 23 24 25 26 27 28 29 30 31 32 33 34 35 36 37 38 39 40 41 42 43 44 45 46 47 48 49 50
638
ASUS43 KIWX 261600
RWRIWX

KIWX WEATHER ROUNDUP
NATIONAL WEATHER SERVICE NORTHERN INDIANA
1200 PM EDT TUE JUL 26 2016

NOTE: "FAIR" INDICATES FEW OR NO CLOUDS BELOW 12,000 FEET WITH NO
SIGNIFICANT WEATHER AND/OR OBSTRUCTIONS TO VISIBILITY.

* THESE STATIONS ARE NOT UNDER NWS QUALITY CONTROL. THEY ALSO MAY NOT
  REPORT WEATHER SUCH AS PRECIPITATION OR FOG.

INZ001>027-261700-
NORTHERN INDIANA

CITY           SKY/WX    TMP DP  RH WIND       PRES   REMARKS
GARY*          PTSUNNY   82  70  65 CALM        N/A
KNOX*          SUNNY     79  54  41 CALM      30.07S
SOUTH BEND     SUNNY     81  63  54 VRB5      30.08S
ELKHART*       SUNNY     81  68  65 E7        30.09S
GOSHEN         SUNNY     82  60  47 E6        30.08S
MONTICELLO*    CLOUDY    79  63  57 SE5       30.07R
ANGOLA*          N/A     81  73  78 CALM      30.09R
FORT WAYNE     PTSUNNY   82  62  50 CALM      30.08S
PERU/GRISSOM   CLOUDY    81  65  58 E7        30.06F

$$
INZ028>050-261700-
CENTRAL INDIANA

CITY           SKY/WX    TMP DP  RH WIND       PRES   REMARKS
LAFAYETTE      CLOUDY    78  67  68 E10       30.06S
KOKOMO*        CLOUDY    79  64  61 E6        30.08R
MUNCIE*        CLOUDY    80  66  62 E6        30.08S
INDIANAPOLIS   LGT RAIN  79  65  62 W3        30.09R

$$
MIZ043>046-050>051-056>058-064>065-071>073-077>080-261700-
SOUTHWEST LOWER MICHIGAN

CITY           SKY/WX    TMP DP  RH WIND       PRES   REMARKS
BATTLE CREEK   MOSUNNY  N/A N/A N/A SE3       30.10R
BENTON HARBOR  SUNNY     80  63  55 VRB3      30.07S
COLDWATER*     SUNNY     81  60  49 CALM      30.09S
HOLLAND        SUNNY     82  66  58 W7        30.08S
GRAND RAPIDS   MOSUNNY   81  62  52 VRB5      30.07S
KALAMAZOO      MOSUNNY   81  60  48 E6        30.09S
STURGIS*       SUNNY     78  63  58 N5        30.09S
THREE RIVERS*  FAIR      80  60  49 E5        30.09S

$$
OHZ001>008-015>018-024>025-261700-
NORTHWEST OHIO

CITY           SKY/WX    TMP DP  RH WIND       PRES   REMARKS
DEFIANCE       SUNNY     83  63  50 MISG      30.08S
FINDLAY        MOSUNNY   82  61  48 E8        30.06S
TOLEDO EXPRESS SUNNY     82  63  52 NE5       30.07R
TOLEDO METCALF SUNNY     82  61  48 E7        30.08R
LIMA           MOSUNNY   83  65  54 E5        30.07S

$$
AND FOR LAKE MICHIGAN COASTAL AND OPEN LAKE BUOY OBSERVATIONS

STATION/POSITION TEMP    WIND        PRES    VSBY  WAVE
                 AIR SEA DIR/SP/G                  HT/PER
                 (F)     (DEG/KT/KT) (MB)    (MI)  (FT/S)
CALUMET HARBOR    77      50/  4/  5 1017.7R
MICHIGAN CITY     75     360/  7/  8   N/A
BURNS HARBOR      75     360/  4/  6 1018.6S
SAINT JOSEPH      78     320/  3/  3 1019.3R
SOUTH LAKE BUOY   73 74  340/  4/  4 1017.5          0
4 MI NW BRIDGMAN  76 77  310/  2/  2 1018.1R         0
MICHIGAN CITY     76 76   30/  4/  4   N/A           0

$$
&&




USA.gov is the U.S. government's official web portal to all federal, state and local government web resources and services.